Time,TemperatureF,DewpointF,PressureIn,WindDirection,WindDirectionDegrees,WindSpeedMPH,WindSpeedGustMPH,Humidity,HourlyPrecipIn,Conditions,Clouds,dailyrainin,SoftwareType,DateUTC
2013-06-13 00:01:00,82.1,77.5,29.94,West,270,2.2,2.7,86,0.00,,,0.00,WUHU216HW,2013-06-13 04:01:00,
2013-06-13 00:06:00,82.1,77.5,29.94,SW,225,1.1,2.5,86,0.00,,,0.00,WUHU216HW,2013-06-13 04:06:00,
2013-06-13 00:11:00,82.1,77.5,29.93,SW,225,1.3,2.5,86,0.00,,,0.00,WUHU216HW,2013-06-13 04:11:00,
2013-06-13 00:16:00,82.1,77.5,29.93,SW,225,3.4,3.4,86,0.00,,,0.00,WUHU216HW,2013-06-13 04:16:00,
2013-06-13 00:21:00,81.9,77.3,29.93,WSW,248,3.1,3.4,86,0.00,,,0.00,WUHU216HW,2013-06-13 04:21:00,
2013-06-13 00:26:00,81.9,77.3,29.93,SW,225,1.8,3.1,86,0.00,,,0.00,WUHU216HW,2013-06-13 04:26:00,
2013-06-13 00:31:00,81.9,77.3,29.93,SW,225,2.2,2.2,86,0.00,,,0.00,WUHU216HW,2013-06-13 04:31:00,
2013-06-13 00:36:00,81.9,77.3,29.93,WSW,248,1.8,2.5,86,0.00,,,0.00,WUHU216HW,2013-06-13 04:36:00,
2013-06-13 00:41:00,81.7,77.1,29.93,WSW,248,1.6,2.5,86,0.00,,,0.00,WUHU216HW,2013-06-13 04:41:00,
2013-06-13 00:46:00,81.7,77.1,29.93,WSW,248,1.3,2.5,86,0.00,,,0.00,WUHU216HW,2013-06-13 04:46:00,
2013-06-13 00:51:00,81.7,77.1,29.92,WSW,248,0.9,2.5,86,0.00,,,0.00,WUHU216HW,2013-06-13 04:51:00,
2013-06-13 00:56:00,81.7,77.1,29.92,West,270,0.9,2.5,86,0.00,,,0.00,WUHU216HW,2013-06-13 04:56:00,
2013-06-13 01:01:00,81.7,77.1,29.92,SW,225,1.3,2.5,86,0.00,,,0.00,WUHU216HW,2013-06-13 05:01:00,
2013-06-13 01:06:00,81.7,77.5,29.92,WSW,248,1.3,1.8,87,0.00,,,0.00,WUHU216HW,2013-06-13 05:06:00,
2013-06-13 01:11:00,81.7,77.5,29.92,WSW,248,1.8,2.0,87,0.00,,,0.00,WUHU216HW,2013-06-13 05:11:00,
2013-06-13 01:16:00,81.7,77.5,29.92,WSW,248,2.5,2.5,87,0.00,,,0.00,WUHU216HW,2013-06-13 05:16:00,
2013-06-13 01:21:00,81.5,77.3,29.92,SW,225,2.5,2.5,87,0.00,,,0.00,WUHU216HW,2013-06-13 05:21:00,
2013-06-13 01:26:00,81.5,77.3,29.92,WSW,248,1.6,2.5,87,0.00,,,0.00,WUHU216HW,2013-06-13 05:26:00,
2013-06-13 01:31:00,81.5,77.3,29.91,SW,225,1.3,3.1,87,0.00,,,0.00,WUHU216HW,2013-06-13 05:31:00,
2013-06-13 01:36:00,81.5,77.3,29.91,WSW,248,1.1,3.1,87,0.00,,,0.00,WUHU216HW,2013-06-13 05:36:00,
2013-06-13 01:41:00,81.5,77.3,29.91,WSW,248,1.8,2.5,87,0.00,,,0.00,WUHU216HW,2013-06-13 05:41:00,
2013-06-13 01:46:00,81.5,77.3,29.91,SW,225,2.0,2.5,87,0.00,,,0.00,WUHU216HW,2013-06-13 05:46:00,
2013-06-13 01:51:00,81.5,77.3,29.91,West,270,0.4,2.0,87,0.00,,,0.00,WUHU216HW,2013-06-13 05:51:00,
2013-06-13 01:56:00,81.5,77.3,29.91,WSW,248,2.7,2.7,87,0.00,,,0.00,WUHU216HW,2013-06-13 05:56:00,
2013-06-13 02:01:00,81.5,77.6,29.91,West,270,1.1,2.7,88,0.00,,,0.00,WUHU216HW,2013-06-13 06:01:00,
2013-06-13 02:06:00,81.5,77.6,29.90,WSW,248,1.8,2.5,88,0.00,,,0.00,WUHU216HW,2013-06-13 06:06:00,
2013-06-13 02:11:00,81.5,77.6,29.90,WSW,248,0.7,2.2,88,0.00,,,0.00,WUHU216HW,2013-06-13 06:11:00,
2013-06-13 02:16:00,81.5,77.3,29.90,WSW,248,1.1,1.8,87,0.00,,,0.00,WUHU216HW,2013-06-13 06:16:00,
2013-06-13 02:21:00,81.5,77.3,29.90,SW,225,1.1,2.2,87,0.00,,,0.00,WUHU216HW,2013-06-13 06:21:00,
2013-06-13 02:26:00,81.5,77.6,29.90,WSW,248,2.0,2.2,88,0.00,,,0.00,WUHU216HW,2013-06-13 06:26:00,
2013-06-13 02:31:00,81.4,77.4,29.90,SW,225,1.1,2.5,88,0.00,,,0.00,WUHU216HW,2013-06-13 06:31:00,
2013-06-13 02:36:00,81.4,77.4,29.90,WSW,248,2.7,2.7,88,0.00,,,0.00,WUHU216HW,2013-06-13 06:36:00,
2013-06-13 02:41:00,81.4,77.4,29.90,SW,225,3.1,3.1,88,0.00,,,0.00,WUHU216HW,2013-06-13 06:41:00,
2013-06-13 02:46:00,81.4,77.4,29.90,WSW,248,2.5,3.1,88,0.00,,,0.00,WUHU216HW,2013-06-13 06:46:00,
2013-06-13 02:51:00,81.4,77.4,29.89,WSW,248,1.6,2.7,88,0.00,,,0.00,WUHU216HW,2013-06-13 06:51:00,
2013-06-13 02:56:00,81.4,77.4,29.89,WSW,248,1.6,2.7,88,0.00,,,0.00,WUHU216HW,2013-06-13 06:56:00,
2013-06-13 03:01:00,81.4,77.4,29.89,West,270,0.4,2.7,88,0.00,,,0.00,WUHU216HW,2013-06-13 07:01:00,
2013-06-13 03:06:00,81.4,77.4,29.89,WSW,248,1.3,3.4,88,0.00,,,0.00,WUHU216HW,2013-06-13 07:06:00,
2013-06-13 03:11:00,81.4,77.4,29.89,West,270,0.7,3.4,88,0.00,,,0.00,WUHU216HW,2013-06-13 07:11:00,
2013-06-13 03:16:00,81.4,77.4,29.89,WSW,248,0.7,2.9,88,0.00,,,0.00,WUHU216HW,2013-06-13 07:16:00,
2013-06-13 03:21:00,81.2,77.2,29.90,SW,225,0.7,2.9,88,0.00,,,0.00,WUHU216HW,2013-06-13 07:21:00,
2013-06-13 03:26:00,81.2,77.2,29.89,WSW,248,1.3,2.2,88,0.00,,,0.00,WUHU216HW,2013-06-13 07:26:00,
2013-06-13 03:31:00,81.2,77.2,29.90,SW,225,0.7,2.2,88,0.00,,,0.00,WUHU216HW,2013-06-13 07:31:00,
2013-06-13 03:36:00,81.2,77.2,29.90,WSW,248,1.8,2.0,88,0.00,,,0.00,WUHU216HW,2013-06-13 07:36:00,
2013-06-13 03:41:00,81.2,77.6,29.90,SW,225,0.9,1.8,89,0.00,,,0.00,WUHU216HW,2013-06-13 07:41:00,
2013-06-13 03:46:00,81.2,77.6,29.89,WSW,248,1.1,2.5,89,0.00,,,0.00,WUHU216HW,2013-06-13 07:46:00,
2013-06-13 03:51:00,81.2,77.6,29.89,SW,225,1.8,2.5,89,0.00,,,0.00,WUHU216HW,2013-06-13 07:51:00,
2013-06-13 03:56:00,81.2,77.6,29.89,WSW,248,1.3,1.8,89,0.00,,,0.00,WUHU216HW,2013-06-13 07:56:00,
2013-06-13 04:01:00,81.0,77.4,29.89,WSW,248,1.6,1.6,89,0.00,,,0.00,WUHU216HW,2013-06-13 08:01:00,
2013-06-13 04:06:00,81.0,77.4,29.89,SW,225,2.0,2.9,89,0.00,,,0.00,WUHU216HW,2013-06-13 08:06:00,
2013-06-13 04:11:00,81.0,77.4,29.89,SW,225,1.6,2.9,89,0.00,,,0.00,WUHU216HW,2013-06-13 08:11:00,
2013-06-13 04:16:00,81.0,77.4,29.89,WSW,248,1.8,2.0,89,0.00,,,0.00,WUHU216HW,2013-06-13 08:16:00,
2013-06-13 04:21:00,81.0,77.4,29.89,WSW,248,0.9,2.0,89,0.00,,,0.00,WUHU216HW,2013-06-13 08:21:00,
2013-06-13 04:26:00,81.0,77.4,29.89,SW,225,1.6,1.8,89,0.00,,,0.00,WUHU216HW,2013-06-13 08:26:00,
2013-06-13 04:31:00,81.0,77.4,29.89,SW,225,1.6,1.8,89,0.00,,,0.00,WUHU216HW,2013-06-13 08:31:00,
2013-06-13 04:36:00,81.0,77.4,29.89,WSW,248,0.4,1.8,89,0.00,,,0.00,WUHU216HW,2013-06-13 08:36:00,
2013-06-13 04:41:00,81.0,77.4,29.90,WSW,248,0.2,0.4,89,0.00,,,0.00,WUHU216HW,2013-06-13 08:41:00,
2013-06-13 04:46:00,81.0,77.4,29.90,WSW,248,0.4,0.7,89,0.00,,,0.00,WUHU216HW,2013-06-13 08:46:00,
2013-06-13 04:51:00,81.0,77.4,29.89,WSW,248,0.0,0.7,89,0.00,,,0.00,WUHU216HW,2013-06-13 08:51:00,
2013-06-13 04:56:00,81.0,77.4,29.89,WSW,248,0.0,0.4,89,0.00,,,0.00,WUHU216HW,2013-06-13 08:56:00,
2013-06-13 05:01:00,81.0,77.4,29.89,WSW,248,0.0,0.4,89,0.00,,,0.00,WUHU216HW,2013-06-13 09:01:00,
2013-06-13 05:06:00,80.8,76.9,29.89,WSW,248,0.0,0.4,88,0.00,,,0.00,WUHU216HW,2013-06-13 09:06:00,
2013-06-13 05:11:00,80.8,76.9,29.89,WSW,248,0.0,0.0,88,0.00,,,0.00,WUHU216HW,2013-06-13 09:11:00,
2013-06-13 05:16:00,80.8,76.9,29.89,WSW,248,0.0,0.0,88,0.00,,,0.00,WUHU216HW,2013-06-13 09:16:00,
2013-06-13 05:21:00,80.6,76.7,29.89,WSW,248,0.0,0.0,88,0.00,,,0.00,WUHU216HW,2013-06-13 09:21:00,
2013-06-13 05:26:00,80.6,76.7,29.89,WSW,248,0.0,0.0,88,0.00,,,0.00,WUHU216HW,2013-06-13 09:26:00,
2013-06-13 05:31:00,80.6,76.7,29.89,WSW,248,0.0,0.0,88,0.00,,,0.00,WUHU216HW,2013-06-13 09:31:00,
2013-06-13 05:36:00,80.5,76.6,29.89,WSW,248,0.0,0.0,88,0.00,,,0.00,WUHU216HW,2013-06-13 09:36:00,
2013-06-13 05:41:00,80.5,76.6,29.90,WSW,248,0.0,0.0,88,0.00,,,0.00,WUHU216HW,2013-06-13 09:41:00,
2013-06-13 05:46:00,80.3,76.4,29.90,WSW,248,0.0,0.0,88,0.00,,,0.00,WUHU216HW,2013-06-13 09:46:00,
2013-06-13 05:51:00,80.3,76.8,29.90,WSW,248,0.0,0.0,89,0.00,,,0.00,WUHU216HW,2013-06-13 09:51:00,
2013-06-13 05:56:00,80.3,76.8,29.90,WSW,248,0.0,0.0,89,0.00,,,0.00,WUHU216HW,2013-06-13 09:56:00,
2013-06-13 06:01:00,80.3,76.8,29.90,WSW,248,0.0,0.0,89,0.00,,,0.00,WUHU216HW,2013-06-13 10:01:00,
2013-06-13 06:06:00,80.3,76.4,29.90,WSW,248,0.0,0.0,88,0.00,,,0.00,WUHU216HW,2013-06-13 10:06:00,
2013-06-13 06:11:00,80.3,76.4,29.90,WSW,248,0.0,0.0,88,0.00,,,0.00,WUHU216HW,2013-06-13 10:11:00,
2013-06-13 06:16:00,80.1,76.2,29.90,WSW,248,0.0,0.0,88,0.00,,,0.00,WUHU216HW,2013-06-13 10:16:00,
2013-06-13 06:21:00,80.1,76.6,29.90,WSW,248,0.0,0.0,89,0.00,,,0.00,WUHU216HW,2013-06-13 10:21:00,
2013-06-13 06:26:00,80.1,76.6,29.90,WSW,248,0.0,0.0,89,0.00,,,0.00,WUHU216HW,2013-06-13 10:26:00,
2013-06-13 06:31:00,79.9,76.4,29.90,WSW,248,0.0,0.0,89,0.00,,,0.00,WUHU216HW,2013-06-13 10:31:00,
2013-06-13 06:36:00,79.9,76.4,29.90,SE,135,0.0,0.0,89,0.00,,,0.00,WUHU216HW,2013-06-13 10:36:00,
2013-06-13 06:41:00,79.9,76.4,29.90,SE,135,0.0,0.0,89,0.00,,,0.00,WUHU216HW,2013-06-13 10:41:00,
2013-06-13 06:46:00,79.9,76.4,29.90,SE,135,0.0,0.0,89,0.00,,,0.00,WUHU216HW,2013-06-13 10:46:00,
2013-06-13 06:51:00,79.9,76.4,29.90,SE,135,0.0,0.0,89,0.00,,,0.00,WUHU216HW,2013-06-13 10:51:00,
2013-06-13 06:56:00,79.7,76.2,29.90,SE,135,0.0,0.0,89,0.00,,,0.00,WUHU216HW,2013-06-13 10:56:00,
2013-06-13 07:01:00,79.9,76.4,29.90,South,180,0.0,0.0,89,0.00,,,0.00,WUHU216HW,2013-06-13 11:01:00,
2013-06-13 07:06:00,79.9,76.4,29.90,South,180,0.0,0.0,89,0.00,,,0.00,WUHU216HW,2013-06-13 11:06:00,
2013-06-13 07:11:00,79.9,76.4,29.90,South,180,0.0,0.0,89,0.00,,,0.00,WUHU216HW,2013-06-13 11:11:00,
2013-06-13 07:16:00,79.9,76.4,29.90,SSW,203,0.0,0.0,89,0.00,,,0.00,WUHU216HW,2013-06-13 11:16:00,
2013-06-13 07:21:00,80.1,76.6,29.90,SSW,203,0.0,0.0,89,0.00,,,0.00,WUHU216HW,2013-06-13 11:21:00,
2013-06-13 07:26:00,80.3,76.8,29.90,SSW,203,0.0,0.0,89,0.00,,,0.00,WUHU216HW,2013-06-13 11:26:00,
2013-06-13 07:31:00,80.3,76.8,29.90,SSW,203,0.0,0.0,89,0.00,,,0.00,WUHU216HW,2013-06-13 11:31:00,
2013-06-13 07:36:00,80.5,76.9,29.91,West,270,0.0,0.0,89,0.00,,,0.00,WUHU216HW,2013-06-13 11:36:00,
2013-06-13 07:41:00,80.6,77.0,29.91,West,270,0.0,0.9,89,0.00,,,0.00,WUHU216HW,2013-06-13 11:41:00,
2013-06-13 07:46:00,80.8,77.2,29.91,WSW,248,0.0,0.9,89,0.00,,,0.00,WUHU216HW,2013-06-13 11:46:00,
2013-06-13 07:51:00,81.0,77.4,29.91,West,270,0.0,0.2,89,0.00,,,0.00,WUHU216HW,2013-06-13 11:51:00,
2013-06-13 07:56:00,81.0,77.4,29.91,West,270,0.0,0.0,89,0.00,,,0.00,WUHU216HW,2013-06-13 11:56:00,
2013-06-13 08:01:00,81.2,77.6,29.91,West,270,0.0,1.1,89,0.00,,,0.00,WUHU216HW,2013-06-13 12:01:00,
2013-06-13 08:06:00,81.2,77.6,29.91,NW,315,0.0,1.1,89,0.00,,,0.00,WUHU216HW,2013-06-13 12:06:00,
2013-06-13 08:11:00,81.4,77.4,29.91,WSW,248,0.0,1.1,88,0.00,,,0.00,WUHU216HW,2013-06-13 12:11:00,
2013-06-13 08:16:00,81.5,77.6,29.91,West,270,0.0,0.4,88,0.00,,,0.00,WUHU216HW,2013-06-13 12:16:00,
2013-06-13 08:21:00,81.7,77.8,29.91,West,270,0.2,1.1,88,0.00,,,0.00,WUHU216HW,2013-06-13 12:21:00,
2013-06-13 08:26:00,81.9,77.9,29.90,WNW,293,0.0,1.1,88,0.00,,,0.00,WUHU216HW,2013-06-13 12:26:00,
2013-06-13 08:31:00,82.1,78.1,29.91,West,270,0.0,0.7,88,0.00,,,0.00,WUHU216HW,2013-06-13 12:31:00,
2013-06-13 08:36:00,82.3,78.3,29.91,SW,225,0.2,0.7,88,0.00,,,0.00,WUHU216HW,2013-06-13 12:36:00,
2013-06-13 08:41:00,82.4,78.2,29.91,WSW,248,0.4,1.6,87,0.00,,,0.00,WUHU216HW,2013-06-13 12:41:00,
2013-06-13 08:46:00,82.6,78.4,29.91,West,270,0.4,1.6,87,0.00,,,0.00,WUHU216HW,2013-06-13 12:46:00,
2013-06-13 08:51:00,83.0,78.4,29.91,SW,225,1.1,1.6,86,0.00,,,0.00,WUHU216HW,2013-06-13 12:51:00,
2013-06-13 08:56:00,83.0,78.4,29.91,WSW,248,0.7,1.6,86,0.00,,,0.00,WUHU216HW,2013-06-13 12:56:00,
2013-06-13 09:01:00,83.2,78.5,29.90,WSW,248,1.3,1.8,86,0.00,,,0.00,WUHU216HW,2013-06-13 13:01:00,
2013-06-13 09:06:00,83.3,78.7,29.90,WSW,248,1.1,2.5,86,0.00,,,0.00,WUHU216HW,2013-06-13 13:06:00,
2013-06-13 09:11:00,83.5,78.5,29.90,SE,135,1.1,2.5,85,0.00,,,0.00,WUHU216HW,2013-06-13 13:11:00,
2013-06-13 09:16:00,83.7,78.7,29.90,WSW,248,1.1,2.2,85,0.00,,,0.00,WUHU216HW,2013-06-13 13:16:00,
2013-06-13 09:21:00,83.7,78.7,29.90,WSW,248,0.4,1.1,85,0.00,,,0.00,WUHU216HW,2013-06-13 13:21:00,
2013-06-13 09:26:00,83.9,78.5,29.90,WSW,248,1.8,1.8,84,0.00,,,0.00,WUHU216HW,2013-06-13 13:26:00,
2013-06-13 09:31:00,84.1,78.7,29.90,WSW,248,0.9,2.7,84,0.00,,,0.00,WUHU216HW,2013-06-13 13:31:00,
2013-06-13 09:36:00,84.4,79.0,29.90,WSW,248,2.2,2.7,84,0.00,,,0.00,WUHU216HW,2013-06-13 13:36:00,
2013-06-13 09:41:00,84.6,79.2,29.90,SW,225,1.1,2.2,84,0.00,,,0.00,WUHU216HW,2013-06-13 13:41:00,
2013-06-13 09:46:00,84.8,79.0,29.90,WSW,248,0.7,1.8,83,0.00,,,0.00,WUHU216HW,2013-06-13 13:46:00,
2013-06-13 09:51:00,85.0,79.2,29.90,West,270,0.9,1.8,83,0.00,,,0.00,WUHU216HW,2013-06-13 13:51:00,
2013-06-13 09:56:00,85.1,79.0,29.90,West,270,1.1,1.8,82,0.00,,,0.00,WUHU216HW,2013-06-13 13:56:00,
2013-06-13 10:01:00,85.3,79.2,29.89,WSW,248,1.6,1.8,82,0.00,,,0.00,WUHU216HW,2013-06-13 14:01:00,
2013-06-13 10:06:00,85.5,79.4,29.89,WSW,248,2.0,2.2,82,0.00,,,0.00,WUHU216HW,2013-06-13 14:06:00,
2013-06-13 10:11:00,85.7,79.6,29.89,WSW,248,0.2,2.5,82,0.00,,,0.00,WUHU216HW,2013-06-13 14:11:00,
2013-06-13 10:16:00,86.0,79.6,29.89,SSE,158,2.0,3.1,81,0.00,,,0.00,WUHU216HW,2013-06-13 14:16:00,
2013-06-13 10:21:00,86.0,79.2,29.89,WSW,248,2.0,3.1,80,0.00,,,0.00,WUHU216HW,2013-06-13 14:21:00,
2013-06-13 10:26:00,86.4,79.6,29.89,WSW,248,2.9,2.9,80,0.00,,,0.00,WUHU216HW,2013-06-13 14:26:00,
2013-06-13 10:31:00,86.4,79.6,29.90,NW,315,0.4,2.9,80,0.00,,,0.00,WUHU216HW,2013-06-13 14:31:00,
2013-06-13 10:36:00,86.8,79.9,29.90,WSW,248,1.8,2.0,80,0.00,,,0.00,WUHU216HW,2013-06-13 14:36:00,
2013-06-13 10:41:00,86.8,79.9,29.90,WNW,293,1.1,2.0,80,0.00,,,0.00,WUHU216HW,2013-06-13 14:41:00,
2013-06-13 10:46:00,86.9,80.1,29.90,WNW,293,1.1,1.6,80,0.00,,,0.00,WUHU216HW,2013-06-13 14:46:00,
2013-06-13 10:51:00,87.1,79.8,29.89,WSW,248,2.2,3.4,79,0.00,,,0.00,WUHU216HW,2013-06-13 14:51:00,
2013-06-13 10:56:00,87.5,79.8,29.89,WSW,248,1.3,4.0,78,0.00,,,0.00,WUHU216HW,2013-06-13 14:56:00,
2013-06-13 11:01:00,87.7,80.0,29.89,West,270,0.9,4.0,78,0.00,,,0.00,WUHU216HW,2013-06-13 15:01:00,
2013-06-13 11:06:00,87.8,79.4,29.89,WSW,248,3.4,3.4,76,0.00,,,0.00,WUHU216HW,2013-06-13 15:06:00,
2013-06-13 11:11:00,88.0,80.4,29.89,WSW,248,1.8,3.4,78,0.00,,,0.00,WUHU216HW,2013-06-13 15:11:00,
2013-06-13 11:16:00,88.0,79.9,29.89,SW,225,1.6,3.4,77,0.00,,,0.00,WUHU216HW,2013-06-13 15:16:00,
2013-06-13 11:21:00,88.4,80.3,29.89,SW,225,1.1,1.6,77,0.00,,,0.00,WUHU216HW,2013-06-13 15:21:00,
2013-06-13 11:26:00,88.6,80.0,29.88,West,270,0.9,1.6,76,0.00,,,0.00,WUHU216HW,2013-06-13 15:26:00,
2013-06-13 11:31:00,88.7,80.2,29.89,WSW,248,2.5,3.4,76,0.00,,,0.00,WUHU216HW,2013-06-13 15:31:00,
2013-06-13 11:36:00,89.3,79.9,29.88,WNW,293,1.1,5.6,74,0.00,,,0.00,WUHU216HW,2013-06-13 15:36:00,
2013-06-13 11:41:00,89.6,80.3,29.88,SW,225,3.6,5.6,74,0.00,,,0.00,WUHU216HW,2013-06-13 15:41:00,
2013-06-13 11:46:00,90.2,80.7,29.88,West,270,2.0,3.6,74,0.00,,,0.00,WUHU216HW,2013-06-13 15:46:00,
2013-06-13 11:51:00,90.5,80.7,29.88,SW,225,3.4,4.5,73,0.00,,,0.00,WUHU216HW,2013-06-13 15:51:00,
2013-06-13 11:56:00,91.1,81.6,29.88,NW,315,1.1,4.5,74,0.00,,,0.00,WUHU216HW,2013-06-13 15:56:00,
2013-06-13 12:01:00,91.4,81.6,29.87,West,270,0.7,3.1,73,0.00,,,0.00,WUHU216HW,2013-06-13 16:01:00,
2013-06-13 12:06:00,91.8,81.5,29.87,WSW,248,1.1,3.1,72,0.00,,,0.00,WUHU216HW,2013-06-13 16:06:00,
2013-06-13 12:11:00,92.0,80.8,29.87,WSW,248,2.7,3.4,70,0.00,,,0.00,WUHU216HW,2013-06-13 16:11:00,
2013-06-13 12:16:00,92.3,80.3,29.87,SW,225,4.7,4.7,68,0.00,,,0.00,WUHU216HW,2013-06-13 16:16:00,
2013-06-13 12:21:00,92.5,81.4,29.87,WSW,248,1.8,4.7,70,0.00,,,0.00,WUHU216HW,2013-06-13 16:21:00,
2013-06-13 12:26:00,92.7,81.1,29.87,SW,225,2.5,4.0,69,0.00,,,0.00,WUHU216HW,2013-06-13 16:26:00,
2013-06-13 12:31:00,93.2,80.6,29.86,SW,225,4.0,4.0,67,0.00,,,0.00,WUHU216HW,2013-06-13 16:31:00,
2013-06-13 12:36:00,93.4,81.8,29.86,West,270,2.7,4.0,69,0.00,,,0.00,WUHU216HW,2013-06-13 16:36:00,
2013-06-13 12:41:00,93.6,82.5,29.86,WSW,248,1.3,4.0,70,0.00,,,0.00,WUHU216HW,2013-06-13 16:41:00,
2013-06-13 12:46:00,94.0,81.8,29.86,WSW,248,3.8,4.3,68,0.00,,,0.00,WUHU216HW,2013-06-13 16:46:00,
2013-06-13 12:51:00,94.0,81.4,29.86,WSW,248,4.0,4.3,67,0.00,,,0.00,WUHU216HW,2013-06-13 16:51:00,
2013-06-13 12:56:00,94.0,81.8,29.85,WSW,248,2.0,4.0,68,0.00,,,0.00,WUHU216HW,2013-06-13 16:56:00,
2013-06-13 13:01:00,94.1,81.5,29.85,SW,225,3.6,4.7,67,0.00,,,0.00,WUHU216HW,2013-06-13 17:01:00,
2013-06-13 13:06:00,94.0,80.8,29.85,WSW,248,3.4,4.9,66,0.00,,,0.00,WUHU216HW,2013-06-13 17:06:00,
2013-06-13 13:11:00,94.0,80.8,29.85,WSW,248,4.0,4.9,66,0.00,,,0.00,WUHU216HW,2013-06-13 17:11:00,
2013-06-13 13:16:00,93.6,80.1,29.85,South,180,2.5,5.4,65,0.00,,,0.00,WUHU216HW,2013-06-13 17:16:00,
2013-06-13 13:21:00,93.6,80.1,29.85,WSW,248,3.4,5.4,65,0.00,,,0.00,WUHU216HW,2013-06-13 17:21:00,
2013-06-13 13:26:00,93.4,79.9,29.85,WSW,248,4.5,5.4,65,0.00,,,0.00,WUHU216HW,2013-06-13 17:26:00,
2013-06-13 13:31:00,93.4,80.4,29.85,WSW,248,2.7,4.7,66,0.00,,,0.00,WUHU216HW,2013-06-13 17:31:00,
2013-06-13 13:36:00,93.2,79.7,29.84,WSW,248,2.9,5.4,65,0.00,,,0.00,WUHU216HW,2013-06-13 17:36:00,
2013-06-13 13:41:00,93.1,80.0,29.84,SW,225,3.8,5.4,66,0.00,,,0.00,WUHU216HW,2013-06-13 17:41:00,
2013-06-13 13:46:00,92.7,79.7,29.84,SSW,203,3.4,4.9,66,0.00,,,0.00,WUHU216HW,2013-06-13 17:46:00,
2013-06-13 13:51:00,92.5,79.5,29.84,WSW,248,3.4,4.9,66,0.00,,,0.00,WUHU216HW,2013-06-13 17:51:00,
2013-06-13 13:56:00,92.3,79.3,29.84,WSW,248,6.3,6.3,66,0.00,,,0.00,WUHU216HW,2013-06-13 17:56:00,
2013-06-13 14:01:00,92.3,79.7,29.84,WSW,248,2.9,6.3,67,0.00,,,0.00,WUHU216HW,2013-06-13 18:01:00,
2013-06-13 14:06:00,92.2,79.1,29.83,WSW,248,3.4,6.0,66,0.00,,,0.00,WUHU216HW,2013-06-13 18:06:00,
2013-06-13 14:11:00,92.2,79.6,29.83,SW,225,1.8,6.0,67,0.00,,,0.00,WUHU216HW,2013-06-13 18:11:00,
2013-06-13 14:16:00,92.0,79.4,29.83,WNW,293,2.0,4.9,67,0.00,,,0.00,WUHU216HW,2013-06-13 18:16:00,
2013-06-13 14:21:00,92.2,79.6,29.82,West,270,3.1,4.9,67,0.00,,,0.00,WUHU216HW,2013-06-13 18:21:00,
2013-06-13 14:26:00,92.2,79.6,29.82,SW,225,4.5,4.5,67,0.00,,,0.00,WUHU216HW,2013-06-13 18:26:00,
2013-06-13 14:31:00,92.2,79.6,29.82,SW,225,1.8,4.5,67,0.00,,,0.00,WUHU216HW,2013-06-13 18:31:00,
2013-06-13 14:36:00,92.3,79.7,29.81,WSW,248,3.6,3.6,67,0.00,,,0.00,WUHU216HW,2013-06-13 18:36:00,
2013-06-13 14:41:00,92.3,79.3,29.81,WSW,248,2.2,6.3,66,0.00,,,0.00,WUHU216HW,2013-06-13 18:41:00,
2013-06-13 14:46:00,92.2,79.6,29.81,SSW,203,1.8,6.3,67,0.00,,,0.00,WUHU216HW,2013-06-13 18:46:00,
2013-06-13 14:51:00,92.0,79.4,29.81,WSW,248,2.5,5.4,67,0.00,,,0.00,WUHU216HW,2013-06-13 18:51:00,
2013-06-13 14:56:00,91.8,79.2,29.81,WNW,293,4.5,5.4,67,0.00,,,0.00,WUHU216HW,2013-06-13 18:56:00,
2013-06-13 15:01:00,91.8,79.2,29.81,WSW,248,3.4,4.5,67,0.00,,,0.00,WUHU216HW,2013-06-13 19:01:00,
2013-06-13 15:06:00,91.8,79.2,29.80,SW,225,2.5,5.8,67,0.00,,,0.00,WUHU216HW,2013-06-13 19:06:00,
2013-06-13 15:11:00,91.8,79.8,29.80,WSW,248,3.4,5.8,68,0.00,,,0.00,WUHU216HW,2013-06-13 19:11:00,
2013-06-13 15:16:00,91.6,79.0,29.80,SW,225,2.5,5.4,67,0.00,,,0.00,WUHU216HW,2013-06-13 19:16:00,
2013-06-13 15:21:00,91.4,79.4,29.80,SW,225,5.4,5.4,68,0.00,,,0.00,WUHU216HW,2013-06-13 19:21:00,
2013-06-13 15:26:00,91.4,79.4,29.79,West,270,3.6,5.4,68,0.00,,,0.00,WUHU216HW,2013-06-13 19:26:00,
2013-06-13 15:31:00,91.4,79.8,29.79,WSW,248,3.4,4.9,69,0.00,,,0.00,WUHU216HW,2013-06-13 19:31:00,
2013-06-13 15:36:00,91.6,79.0,29.80,SW,225,4.7,4.7,67,0.00,,,0.00,WUHU216HW,2013-06-13 19:36:00,
2013-06-13 15:41:00,91.8,79.8,29.79,SW,225,4.7,4.7,68,0.00,,,0.00,WUHU216HW,2013-06-13 19:41:00,
2013-06-13 15:46:00,91.8,79.8,29.79,WSW,248,2.5,4.7,68,0.00,,,0.00,WUHU216HW,2013-06-13 19:46:00,
2013-06-13 15:51:00,91.8,79.8,29.79,West,270,4.0,4.3,68,0.00,,,0.00,WUHU216HW,2013-06-13 19:51:00,
2013-06-13 15:56:00,91.8,79.8,29.79,SW,225,2.9,5.1,68,0.00,,,0.00,WUHU216HW,2013-06-13 19:56:00,
2013-06-13 16:01:00,91.4,78.8,29.79,SW,225,5.6,5.6,67,0.00,,,0.00,WUHU216HW,2013-06-13 20:01:00,
2013-06-13 16:06:00,91.3,79.2,29.78,SW,225,5.8,5.8,68,0.00,,,0.00,WUHU216HW,2013-06-13 20:06:00,
2013-06-13 16:11:00,91.1,79.0,29.78,SSW,203,3.1,5.8,68,0.00,,,0.00,WUHU216HW,2013-06-13 20:11:00,
2013-06-13 16:16:00,90.9,79.3,29.78,WSW,248,4.7,5.8,69,0.00,,,0.00,WUHU216HW,2013-06-13 20:16:00,
2013-06-13 16:21:00,90.9,79.3,29.78,WSW,248,1.1,5.8,69,0.00,,,0.00,WUHU216HW,2013-06-13 20:21:00,
2013-06-13 16:26:00,90.9,79.3,29.78,WSW,248,4.3,5.1,69,0.00,,,0.00,WUHU216HW,2013-06-13 20:26:00,
2013-06-13 16:31:00,90.9,79.8,29.78,SSW,203,4.0,4.3,70,0.00,,,0.00,WUHU216HW,2013-06-13 20:31:00,
2013-06-13 16:36:00,90.9,79.8,29.78,SW,225,3.1,4.0,70,0.00,,,0.00,WUHU216HW,2013-06-13 20:36:00,
2013-06-13 16:41:00,90.9,79.8,29.78,WSW,248,4.0,4.0,70,0.00,,,0.00,WUHU216HW,2013-06-13 20:41:00,
2013-06-13 16:46:00,90.7,79.7,29.78,SW,225,2.2,4.3,70,0.00,,,0.00,WUHU216HW,2013-06-13 20:46:00,
2013-06-13 16:51:00,90.9,79.8,29.77,West,270,2.7,4.3,70,0.00,,,0.00,WUHU216HW,2013-06-13 20:51:00,
2013-06-13 16:56:00,90.9,79.8,29.78,WSW,248,2.5,4.7,70,0.00,,,0.00,WUHU216HW,2013-06-13 20:56:00,
2013-06-13 17:01:00,90.7,79.7,29.78,WSW,248,3.4,4.9,70,0.00,,,0.00,WUHU216HW,2013-06-13 21:01:00,
2013-06-13 17:06:00,90.5,79.8,29.78,SW,225,3.6,4.9,71,0.00,,,0.00,WUHU216HW,2013-06-13 21:06:00,
2013-06-13 17:11:00,90.5,79.5,29.78,WSW,248,4.0,4.9,70,0.00,,,0.00,WUHU216HW,2013-06-13 21:11:00,
2013-06-13 17:16:00,90.4,79.3,29.78,SW,225,4.3,5.4,70,0.00,,,0.00,WUHU216HW,2013-06-13 21:16:00,
2013-06-13 17:21:00,90.4,79.3,29.78,SW,225,6.7,6.7,70,0.00,,,0.00,WUHU216HW,2013-06-13 21:21:00,
2013-06-13 17:26:00,90.4,79.8,29.77,WSW,248,2.7,6.7,71,0.00,,,0.00,WUHU216HW,2013-06-13 21:26:00,
2013-06-13 17:31:00,90.4,79.3,29.77,WSW,248,3.4,6.7,70,0.00,,,0.00,WUHU216HW,2013-06-13 21:31:00,
2013-06-13 17:36:00,90.2,79.6,29.77,West,270,2.2,4.9,71,0.00,,,0.00,WUHU216HW,2013-06-13 21:36:00,
2013-06-13 17:41:00,90.2,79.6,29.77,WSW,248,2.5,4.3,71,0.00,,,0.00,WUHU216HW,2013-06-13 21:41:00,
2013-06-13 17:46:00,90.0,79.4,29.77,West,270,3.4,5.8,71,0.00,,,0.00,WUHU216HW,2013-06-13 21:46:00,
2013-06-13 17:51:00,90.0,79.7,29.77,SW,225,3.1,5.8,72,0.00,,,0.00,WUHU216HW,2013-06-13 21:51:00,
2013-06-13 17:56:00,90.0,79.7,29.76,WSW,248,3.4,5.1,72,0.00,,,0.00,WUHU216HW,2013-06-13 21:56:00,
2013-06-13 18:01:00,89.8,79.7,29.76,SW,225,2.7,4.5,72,0.00,,,0.00,WUHU216HW,2013-06-13 22:01:00,
2013-06-13 18:06:00,89.6,79.5,29.76,WSW,248,2.5,4.5,72,0.00,,,0.00,WUHU216HW,2013-06-13 22:06:00,
2013-06-13 18:11:00,89.6,79.5,29.77,WSW,248,2.9,5.4,72,0.00,,,0.00,WUHU216HW,2013-06-13 22:11:00,
2013-06-13 18:16:00,89.5,79.3,29.76,SW,225,1.6,5.4,72,0.00,,,0.00,WUHU216HW,2013-06-13 22:16:00,
2013-06-13 18:21:00,89.5,79.7,29.76,SSW,203,3.4,3.6,73,0.00,,,0.00,WUHU216HW,2013-06-13 22:21:00,
2013-06-13 18:26:00,89.3,79.5,29.76,SW,225,5.4,5.4,73,0.00,,,0.00,WUHU216HW,2013-06-13 22:26:00,
2013-06-13 18:31:00,89.3,79.5,29.76,WSW,248,4.5,5.4,73,0.00,,,0.00,WUHU216HW,2013-06-13 22:31:00,
2013-06-13 18:36:00,88.9,79.1,29.76,WSW,248,4.0,7.4,73,0.00,,,0.00,WUHU216HW,2013-06-13 22:36:00,
2013-06-13 18:41:00,88.7,78.9,29.76,WSW,248,1.6,7.4,73,0.00,,,0.00,WUHU216HW,2013-06-13 22:41:00,
2013-06-13 18:46:00,88.6,79.2,29.76,SW,225,4.0,4.9,74,0.00,,,0.00,WUHU216HW,2013-06-13 22:46:00,
2013-06-13 18:51:00,88.6,79.2,29.76,SW,225,3.6,4.0,74,0.00,,,0.00,WUHU216HW,2013-06-13 22:51:00,
2013-06-13 18:56:00,88.2,78.8,29.76,WSW,248,2.2,4.0,74,0.00,,,0.00,WUHU216HW,2013-06-13 22:56:00,
2013-06-13 19:01:00,88.0,79.1,29.77,WSW,248,4.0,4.0,75,0.00,,,0.00,WUHU216HW,2013-06-13 23:01:00,
2013-06-13 19:06:00,87.8,78.9,29.77,SW,225,4.0,4.0,75,0.00,,,0.00,WUHU216HW,2013-06-13 23:06:00,
2013-06-13 19:11:00,87.8,78.9,29.77,WSW,248,2.9,4.9,75,0.00,,,0.00,WUHU216HW,2013-06-13 23:11:00,
2013-06-13 19:16:00,87.5,78.6,29.77,WSW,248,4.9,4.9,75,0.00,,,0.00,WUHU216HW,2013-06-13 23:16:00,
2013-06-13 19:21:00,87.3,78.9,29.77,West,270,3.4,5.1,76,0.00,,,0.00,WUHU216HW,2013-06-13 23:21:00,
2013-06-13 19:26:00,87.1,78.7,29.77,SSW,203,2.7,5.4,76,0.00,,,0.00,WUHU216HW,2013-06-13 23:26:00,
2013-06-13 19:31:00,86.8,78.3,29.77,WSW,248,1.8,5.4,76,0.00,,,0.00,WUHU216HW,2013-06-13 23:31:00,
2013-06-13 19:36:00,86.8,78.3,29.77,WSW,248,3.6,4.7,76,0.00,,,0.00,WUHU216HW,2013-06-13 23:36:00,
2013-06-13 19:41:00,86.6,78.6,29.77,SW,225,2.0,4.9,77,0.00,,,0.00,WUHU216HW,2013-06-13 23:41:00,
2013-06-13 19:46:00,86.2,78.2,29.77,SW,225,2.7,4.9,77,0.00,,,0.00,WUHU216HW,2013-06-13 23:46:00,
2013-06-13 19:51:00,86.2,78.2,29.77,WSW,248,4.0,4.0,77,0.00,,,0.00,WUHU216HW,2013-06-13 23:51:00,
2013-06-13 19:56:00,86.0,78.4,29.77,West,270,4.0,4.0,78,0.00,,,0.00,WUHU216HW,2013-06-13 23:56:00,
2013-06-13 20:01:00,85.9,78.2,29.77,WSW,248,4.0,4.0,78,0.00,,,0.00,WUHU216HW,2013-06-14 00:01:00,
2013-06-13 20:06:00,85.7,78.0,29.78,SW,225,3.4,4.0,78,0.00,,,0.00,WUHU216HW,2013-06-14 00:06:00,
2013-06-13 20:11:00,85.5,78.3,29.78,WSW,248,1.8,5.1,79,0.00,,,0.00,WUHU216HW,2013-06-14 00:11:00,
2013-06-13 20:16:00,85.3,78.1,29.78,West,270,3.6,5.1,79,0.00,,,0.00,WUHU216HW,2013-06-14 00:16:00,
2013-06-13 20:21:00,85.3,78.1,29.78,SW,225,4.0,4.0,79,0.00,,,0.00,WUHU216HW,2013-06-14 00:21:00,
2013-06-13 20:26:00,85.1,78.0,29.77,SW,225,2.5,4.0,79,0.00,,,0.00,WUHU216HW,2013-06-14 00:26:00,
2013-06-13 20:31:00,85.1,78.0,29.77,WSW,248,2.9,4.0,79,0.00,,,0.00,WUHU216HW,2013-06-14 00:31:00,
2013-06-13 20:36:00,85.0,77.8,29.77,WSW,248,2.9,4.0,79,0.00,,,0.00,WUHU216HW,2013-06-14 00:36:00,
2013-06-13 20:41:00,85.0,77.8,29.78,WSW,248,2.5,3.6,79,0.00,,,0.00,WUHU216HW,2013-06-14 00:41:00,
2013-06-13 20:46:00,84.8,77.6,29.78,West,270,1.6,3.6,79,0.00,,,0.00,WUHU216HW,2013-06-14 00:46:00,
2013-06-13 20:51:00,84.6,77.4,29.77,WSW,248,3.4,3.6,79,0.00,,,0.00,WUHU216HW,2013-06-14 00:51:00,
2013-06-13 20:56:00,84.6,77.8,29.78,WSW,248,2.2,3.6,80,0.00,,,0.00,WUHU216HW,2013-06-14 00:56:00,
2013-06-13 21:01:00,84.6,77.8,29.78,SW,225,2.5,3.6,80,0.00,,,0.00,WUHU216HW,2013-06-14 01:01:00,
2013-06-13 21:06:00,84.6,77.8,29.78,WSW,248,1.8,4.5,80,0.00,,,0.00,WUHU216HW,2013-06-14 01:06:00,
2013-06-13 21:11:00,84.4,77.6,29.77,WSW,248,1.8,4.5,80,0.00,,,0.00,WUHU216HW,2013-06-14 01:11:00,
2013-06-13 21:16:00,84.4,77.6,29.77,WSW,248,2.0,4.3,80,0.00,,,0.00,WUHU216HW,2013-06-14 01:16:00,
2013-06-13 21:21:00,84.4,77.6,29.77,WSW,248,2.5,4.7,80,0.00,,,0.00,WUHU216HW,2013-06-14 01:21:00,
2013-06-13 21:26:00,84.4,77.6,29.77,SW,225,2.5,4.7,80,0.00,,,0.00,WUHU216HW,2013-06-14 01:26:00,
2013-06-13 21:31:00,84.4,77.6,29.77,SW,225,2.5,3.1,80,0.00,,,0.00,WUHU216HW,2013-06-14 01:31:00,
2013-06-13 21:36:00,84.2,77.4,29.77,SW,225,3.4,3.4,80,0.00,,,0.00,WUHU216HW,2013-06-14 01:36:00,
2013-06-13 21:41:00,84.2,77.4,29.76,SW,225,2.5,3.4,80,0.00,,,0.00,WUHU216HW,2013-06-14 01:41:00,
2013-06-13 21:46:00,84.2,77.8,29.76,SW,225,2.9,2.9,81,0.00,,,0.00,WUHU216HW,2013-06-14 01:46:00,
2013-06-13 21:51:00,84.2,77.8,29.76,WSW,248,2.2,2.9,81,0.00,,,0.00,WUHU216HW,2013-06-14 01:51:00,
2013-06-13 21:56:00,84.2,77.8,29.76,West,270,3.1,3.1,81,0.00,,,0.00,WUHU216HW,2013-06-14 01:56:00,
2013-06-13 22:01:00,84.1,77.6,29.76,SSW,203,1.8,4.0,81,0.00,,,0.00,WUHU216HW,2013-06-14 02:01:00,
2013-06-13 22:06:00,84.1,77.6,29.76,WSW,248,1.8,4.0,81,0.00,,,0.00,WUHU216HW,2013-06-14 02:06:00,
2013-06-13 22:11:00,84.1,77.6,29.75,WSW,248,3.4,3.4,81,0.00,,,0.00,WUHU216HW,2013-06-14 02:11:00,
2013-06-13 22:16:00,84.1,77.6,29.74,SW,225,2.5,4.0,81,0.00,,,0.00,WUHU216HW,2013-06-14 02:16:00,
2013-06-13 22:21:00,83.9,77.4,29.74,WSW,248,4.5,4.5,81,0.00,,,0.00,WUHU216HW,2013-06-14 02:21:00,
2013-06-13 22:26:00,83.9,77.4,29.74,WSW,248,3.4,4.5,81,0.00,,,0.00,WUHU216HW,2013-06-14 02:26:00,
2013-06-13 22:31:00,83.9,77.8,29.74,WSW,248,3.6,4.0,82,0.00,,,0.00,WUHU216HW,2013-06-14 02:31:00,
2013-06-13 22:36:00,83.9,77.8,29.74,WSW,248,1.8,3.8,82,0.00,,,0.00,WUHU216HW,2013-06-14 02:36:00,
2013-06-13 22:41:00,83.9,77.8,29.74,WSW,248,3.4,4.3,82,0.00,,,0.00,WUHU216HW,2013-06-14 02:41:00,
2013-06-13 22:46:00,83.9,77.8,29.74,WSW,248,0.9,4.3,82,0.00,,,0.00,WUHU216HW,2013-06-14 02:46:00,
2013-06-13 22:51:00,83.9,77.4,29.75,West,270,4.3,4.3,81,0.00,,,0.00,WUHU216HW,2013-06-14 02:51:00,
2013-06-13 22:56:00,83.9,77.4,29.75,WSW,248,3.4,4.3,81,0.00,,,0.00,WUHU216HW,2013-06-14 02:56:00,
2013-06-13 23:01:00,83.9,77.4,29.75,WSW,248,0.9,3.6,81,0.00,,,0.00,WUHU216HW,2013-06-14 03:01:00,
2013-06-13 23:06:00,83.9,77.4,29.75,WSW,248,1.3,3.4,81,0.00,,,0.00,WUHU216HW,2013-06-14 03:06:00,
2013-06-13 23:11:00,83.9,77.4,29.75,WSW,248,1.3,2.9,81,0.00,,,0.00,WUHU216HW,2013-06-14 03:11:00,
2013-06-13 23:16:00,83.9,77.8,29.75,SW,225,4.5,4.5,82,0.00,,,0.00,WUHU216HW,2013-06-14 03:16:00,
2013-06-13 23:21:00,83.7,77.6,29.74,WSW,248,1.1,4.5,82,0.00,,,0.00,WUHU216HW,2013-06-14 03:21:00,
2013-06-13 23:26:00,83.7,77.6,29.74,SW,225,1.8,3.6,82,0.00,,,0.00,WUHU216HW,2013-06-14 03:26:00,
2013-06-13 23:31:00,83.7,77.6,29.74,WSW,248,2.5,3.6,82,0.00,,,0.00,WUHU216HW,2013-06-14 03:31:00,
2013-06-13 23:36:00,83.7,77.6,29.74,SW,225,1.8,3.6,82,0.00,,,0.00,WUHU216HW,2013-06-14 03:36:00,
2013-06-13 23:41:00,83.5,77.5,29.74,WSW,248,2.2,3.4,82,0.00,,,0.00,WUHU216HW,2013-06-14 03:41:00,
2013-06-13 23:46:00,83.5,77.5,29.74,SW,225,2.2,3.6,82,0.00,,,0.00,WUHU216HW,2013-06-14 03:46:00,
2013-06-13 23:51:00,83.5,77.5,29.74,WSW,248,1.6,3.6,82,0.00,,,0.00,WUHU216HW,2013-06-14 03:51:00,
2013-06-13 23:56:00,83.5,77.5,29.74,SW,225,2.9,2.9,82,0.00,,,0.00,WUHU216HW,2013-06-14 03:56:00,